{"data":{"norad_id":66666,"epoch":"2026-09-20T22:39:16.996608Z","epoch_age_seconds":82652,"freshness":"FRESH","line1":"1 66666U 25276A   26263.94394672  .00001010  00000+0  83595-4 0  9990","line2":"2 66666  97.6540 336.7506 0005159 310.3343  49.7430 15.01079194 44428","mean_motion":15.01079194,"eccentricity":0.0005159,"inclination_deg":97.654,"raan_deg":336.7506,"arg_perigee_deg":310.3343,"mean_anomaly_deg":49.743,"bstar":8.3595e-5,"rev_number":4442,"period_min":95.930981240421,"perigee_km":559.98598821803,"apogee_km":567.14843862544,"semimajor_km":6941.7042134217,"source":"CELESTRAK","updated_at":"2026-09-21T09:00:16.118490Z"}}